| time (UTC) | temp F | wind direction | speed knots | gust knots | rain 1hr in | rain 24hr in | rain mn in | humidity % | barometer mb |
| 20260506231501 | 55 | 299 | 2.6 | 4.3 | 0.00 | 0.00 | 0.00 | 62 | 1017.5 |
| 20260506230002 | 53 | 301 | 2.6 | 4.3 | 0.00 | 0.00 | 0.00 | 64 | 1017.7 |
| 20260506224521 | 52 | 291 | 2.6 | 4.3 | 0.00 | 0.00 | 0.00 | 67 | 1017.8 |
| 20260506223000 | 53 | 270 | 1.7 | 1.7 | 0.00 | 0.00 | 0.00 | 67 | 1017.8 |
| 20260506221522 | 54 | 297 | 2.6 | 4.3 | 0.00 | 0.00 | 0.00 | 68 | 1017.9 |
| 20260506220005 | 52 | 288 | 2.6 | 4.3 | 0.00 | 0.00 | 0.00 | 72 | 1018.0 |
| 20260506214521 | 52 | 299 | 1.7 | 4.3 | 0.00 | 0.00 | 0.00 | 72 | 1018.0 |
| 20260506213001 | 52 | 290 | 2.6 | 4.3 | 0.00 | 0.00 | 0.00 | 71 | 1018.1 |
| 20260506211501 | 53 | 283 | 1.7 | 1.7 | 0.00 | 0.00 | 0.00 | 70 | 1018.2 |
| 20260506210033 | 53 | 312 | 2.6 | 4.3 | 0.00 | 0.00 | 0.00 | 70 | 1018.3 |
| 20260506204501 | 53 | 288 | 2.6 | 4.3 | 0.00 | 0.00 | 0.00 | 70 | 1018.4 |
| 20260506203022 | 54 | 312 | 2.6 | 4.3 | 0.00 | 0.00 | 0.00 | 68 | 1018.2 |
| 20260506201522 | 54 | 289 | 2.6 | 4.3 | 0.00 | 0.00 | 0.00 | 69 | 1018.2 |
| 20260506200002 | 55 | 285 | 0.9 | 1.7 | 0.00 | 0.00 | 0.00 | 67 | 1017.9 |
| 20260506194522 | 55 | 301 | 2.6 | 4.3 | 0.00 | 0.00 | 0.00 | 66 | 1017.7 |
| 20260506193001 | 56 | 308 | 2.6 | 4.3 | 0.00 | 0.00 | 0.00 | 64 | 1017.4 |
| 20260506191501 | 56 | 283 | 1.7 | 4.3 | 0.00 | 0.00 | 0.00 | 65 | 1017.3 |
| 20260506190002 | 56 | 295 | 1.7 | 4.3 | 0.00 | 0.00 | 0.00 | 64 | 1017.1 |
| 20260506184501 | 55 | 287 | 1.7 | 1.7 | 0.00 | 0.00 | 0.00 | 67 | 1017.2 |
| 20260506181522 | 58 | 291 | 1.7 | 1.7 | 0.00 | 0.00 | 0.00 | 62 | 1016.5 |
| 20260506180002 | 60 | 278 | 0.9 | 1.7 | 0.00 | 0.00 | 0.00 | 57 | 1016.2 |
| 20260506174501 | 58 | 275 | 1.7 | 1.7 | 0.00 | 0.00 | 0.00 | 62 | 1016.3 |
| 20260506173001 | 60 | 284 | 2.6 | 4.3 | 0.00 | 0.00 | 0.00 | 60 | 1015.9 |
| 20260506171501 | 60 | 302 | 1.7 | 4.3 | 0.00 | 0.00 | 0.00 | 62 | 1015.9 |
| 20260506170003 | 61 | 299 | 1.7 | 1.7 | 0.00 | 0.00 | 0.00 | 61 | 1015.7 |
| 20260506164523 | 62 | 330 | 2.6 | 4.3 | 0.00 | 0.00 | 0.00 | 58 | 1015.6 |
| 20260506163002 | 63 | 4 | 2.6 | 4.3 | 0.00 | 0.00 | 0.00 | 57 | 1015.5 |
| 20260506161523 | 63 | 340 | 2.6 | 4.3 | 0.00 | 0.00 | 0.00 | 58 | 1015.3 |
| 20260506160002 | 65 | 283 | 1.7 | 1.7 | 0.00 | 0.00 | 0.00 | 56 | 1015.1 |
| 20260506154502 | 67 | 237 | 2.6 | 4.3 | 0.00 | 0.00 | 0.00 | 53 | 1014.7 |
| 20260506153002 | 69 | 229 | 2.6 | 4.3 | 0.00 | 0.00 | 0.00 | 52 | 1014.5 |
| 20260506151502 | 70 | 261 | 2.6 | 4.3 | 0.00 | 0.00 | 0.00 | 54 | 1014.6 |
| 20260506150004 | 70 | 354 | 1.7 | 4.3 | 0.00 | 0.00 | 0.00 | 53 | 1014.7 |
| 20260506144502 | 71 | 262 | 2.6 | 3.5 | 0.00 | 0.00 | 0.00 | 56 | 1014.5 |
| 20260506141523 | 70 | 39 | 2.6 | 4.3 | 0.00 | 0.00 | 0.00 | 56 | 1014.7 |
| 20260506140004 | 72 | 264 | 2.6 | 4.3 | 0.00 | 0.00 | 0.00 | 56 | 1014.5 |
| 20260506134502 | 73 | 194 | 2.6 | 7.0 | 0.00 | 0.00 | 0.00 | 49 | 1014.4 |
| 20260506133023 | 71 | 243 | 1.7 | 1.7 | 0.00 | 0.00 | 0.00 | 57 | 1014.8 |
| 20260506131502 | 71 | 240 | 2.6 | 5.2 | 0.00 | 0.00 | 0.00 | 52 | 1014.8 |
| 20260506130004 | 74 | 282 | 1.7 | 3.5 | 0.00 | 0.00 | 0.00 | 50 | 1014.4 |
| 20260506124502 | 75 | 260 | 2.6 | 4.3 | 0.00 | 0.00 | 0.00 | 49 | 1014.4 |
| 20260506123002 | 73 | 31 | 3.5 | 5.2 | 0.00 | 0.00 | 0.00 | 54 | 1014.5 |
| 20260506121503 | 74 | 324 | 2.6 | 4.3 | 0.00 | 0.00 | 0.00 | 56 | 1014.6 |
| 20260506120004 | 75 | 287 | 2.6 | 4.3 | 0.00 | 0.00 | 0.00 | 55 | 1014.4 |
| 20260506114524 | 74 | 28 | 2.6 | 4.3 | 0.00 | 0.00 | 0.00 | 57 | 1014.7 |
| 20260506113003 | 72 | 335 | 1.7 | 1.7 | 0.00 | 0.00 | 0.00 | 57 | 1015.0 |
| 20260506111503 | 73 | 251 | 2.6 | 4.3 | 0.00 | 0.00 | 0.00 | 54 | 1015.1 |
| 20260506110003 | 72 | 56 | 2.6 | 3.5 | 0.00 | 0.00 | 0.00 | 55 | 1015.1 |
| 20260506104503 | 73 | 50 | 1.7 | 3.5 | 0.00 | 0.00 | 0.00 | 56 | 1015.1 |
| 20260506103003 | 77 | 230 | 2.6 | 5.2 | 0.00 | 0.00 | 0.00 | 50 | 1014.4 |
| 20260506101524 | 77 | 232 | 2.6 | 4.3 | 0.00 | 0.00 | 0.00 | 50 | 1014.6 |
| 20260506100004 | 75 | 208 | 3.5 | 5.2 | 0.00 | 0.00 | 0.00 | 48 | 1014.9 |
| 20260506094503 | 76 | 235 | 2.6 | 5.2 | 0.00 | 0.00 | 0.00 | 48 | 1014.7 |
| 20260506093024 | 76 | 258 | 1.7 | 1.7 | 0.00 | 0.00 | 0.00 | 48 | 1014.8 |
| 20260506091503 | 74 | 87 | 2.6 | 4.3 | 0.00 | 0.00 | 0.00 | 45 | 1015.1 |
| 20260506090024 | 74 | 27 | 2.6 | 3.5 | 0.00 | 0.00 | 0.00 | 46 | 1015.1 |
| 20260506084503 | 75 | 28 | 1.7 | 3.5 | 0.00 | 0.00 | 0.00 | 48 | 1014.9 |
| 20260506083024 | 74 | 331 | 1.7 | 3.5 | 0.00 | 0.00 | 0.00 | 49 | 1015.0 |
| 20260506081503 | 72 | 352 | 2.6 | 3.5 | 0.00 | 0.00 | 0.00 | 48 | 1015.1 |
| 20260506073004 | 70 | 305 | 1.7 | 3.5 | 0.00 | 0.00 | 0.00 | 47 | 1015.2 |
| 20260506071524 | 71 | 241 | 2.6 | 3.5 | 0.00 | 0.00 | 0.00 | 51 | 1015.0 |
| 20260506061503 | 68 | 297 | 0.9 | 1.7 | 0.00 | 0.00 | 0.00 | 55 | 1015.3 |
| 20260506044504 | 61 | 0 | 0.0 | 0.0 | 0.00 | 0.00 | 0.00 | 62 | 1015.7 |
| 20260506043025 | 57 | 315 | 0.0 | 1.7 | 0.00 | 0.00 | 0.00 | 70 | 1016.2 |
| 20260506041503 | 54 | 0 | 0.0 | 0.0 | 0.00 | 0.00 | 0.00 | 75 | 1016.2 |
| 20260506040004 | 54 | 0 | 0.0 | 0.0 | 0.00 | 0.00 | 0.00 | 72 | 1016.3 |
| 20260506034504 | 53 | 0 | 0.0 | 0.0 | 0.00 | 0.00 | 0.00 | 73 | 1016.3 |
| 20260506033005 | 52 | 0 | 0.0 | 0.0 | 0.00 | 0.00 | 0.00 | 73 | 1016.2 |
| 20260506031504 | 53 | 0 | 0.0 | 0.0 | 0.00 | 0.00 | 0.00 | 72 | 1016.0 |
| 20260506030005 | 53 | 0 | 0.0 | 0.0 | 0.00 | 0.00 | 0.00 | 72 | 1016.0 |
| 20260506024525 | 54 | 270 | 0.0 | 1.7 | 0.00 | 0.00 | 0.00 | 69 | 1015.9 |
| 20260506023025 | 54 | 0 | 0.0 | 0.0 | 0.00 | 0.00 | 0.00 | 69 | 1015.8 |
| 20260506021525 | 54 | 135 | 0.9 | 1.7 | 0.00 | 0.00 | 0.00 | 67 | 1015.8 |
| 20260506020006 | 54 | 311 | 1.7 | 4.3 | 0.00 | 0.00 | 0.00 | 68 | 1015.9 |
| 20260506014525 | 52 | 331 | 2.6 | 4.3 | 0.00 | 0.00 | 0.00 | 71 | 1016.3 |
| 20260506013004 | 51 | 237 | 0.9 | 1.7 | 0.00 | 0.00 | 0.00 | 74 | 1016.5 |
| 20260506011504 | 51 | 248 | 0.9 | 1.7 | 0.00 | 0.00 | 0.00 | 71 | 1016.5 |
| 20260506010007 | 53 | 270 | 0.0 | 1.7 | 0.00 | 0.00 | 0.00 | 68 | 1016.3 |
| 20260506004505 | 55 | 225 | 0.0 | 1.7 | 0.00 | 0.00 | 0.00 | 62 | 1016.1 |
| 20260506003004 | 53 | 225 | 0.0 | 1.7 | 0.00 | 0.00 | 0.00 | 68 | 1016.4 |
| 20260506001504 | 52 | 0 | 0.0 | 0.0 | 0.00 | 0.00 | 0.00 | 70 | 1016.4 |
| 20260506000006 | 53 | 270 | 0.0 | 1.7 | 0.00 | 0.00 | 0.00 | 69 | 1016.3 |
| 20260505234500 | 51 | 270 | 0.9 | 1.7 | 0.00 | 0.00 | 0.00 | 73 | 1016.5 |
| 20260505233020 | 51 | 270 | 0.0 | 1.7 | 0.00 | 0.00 | 0.00 | 73 | 1016.7 |